momtaznews.com alexa rank chart, momtaznews.com alexa rank daily changes

momtaznews.com alexa rank chart, momtaznews.com alexa rank daily changes

momtaznews.com
Actual rank:
21 534

RANK HISTORY

Date Rank Diff
2017/03/01 21 534 +914
2017/02/28 20 620 +81
2017/02/27 20 539 +227
2017/02/26 20 312 +204
2017/02/25 20 108 +209
2017/02/24 19 899 +429
2017/02/23 19 470 +143
2017/02/22 19 327 +177
2017/02/21 19 150 +119
2017/02/20 19 031 +253
2017/02/19 18 778 +343
2017/02/18 18 435 +344
2017/02/17 18 091 +328
2017/02/16 17 763 +304
2017/02/15 17 459 +89
2017/02/14 17 370 +309
2017/02/13 17 061 +144
2017/02/12 16 917 +270
2017/02/11 16 647 +157
2017/02/10 16 490 +239
2017/02/09 16 251 +226
2017/02/08 16 025 +54
2017/02/07 15 971 -91
2017/02/06 16 062 -91
2017/02/05 16 153 -62
2017/02/03 16 215 +8
2017/02/02 16 207 -118
2017/02/01 16 325 +21
2017/01/31 16 304 -14
2017/01/30 16 318 +3
2017/01/29 16 315 +19
2017/01/28 16 296 +124
2017/01/27 16 172 +29
2017/01/26 16 143 +34
2017/01/25 16 109 -74
2017/01/24 16 183 -141
2017/01/23 16 324 -17
2017/01/22 16 341 +12
2017/01/21 16 329 +63
2017/01/20 16 266 -26
2017/01/19 16 292 -68
2017/01/18 16 360 -99
2017/01/17 16 459 -42
2017/01/16 16 501 -105
2017/01/15 16 606 +14
2017/01/14 16 592 -140
2017/01/13 16 732 -83
2017/01/12 16 815 -64
2017/01/11 16 879 +70
2017/01/10 16 809 -357
2017/01/09 17 166 -264
2017/01/08 17 430 +34
2017/01/07 17 396 +126
2017/01/06 17 270 +179
2017/01/05 17 091 +147
2017/01/04 16 944 +20
2017/01/03 16 924 +107
2017/01/02 16 817 +161
2017/01/01 16 656 +20
2016/12/31 16 636

WIDGET FOR YOUR SITE

DOMAINS WITH THE NEAREST RANK

Domain Rank
zahav.ru 21 529
notretemps.com 21 530
k12.ct.us 21 531
1pondo.tv 21 532
galsen221.com 21 533
momtaznews.com 21 534
royalsocietypublishing.org 21 535
228.com.cn 21 536
codewars.com 21 537
jurovalendo.com.br 21 538
moto7.net 21 539

DOMAINS WITH THE NEAREST RANK BY TLD .com

Domain Rank
brighthub.com 21 525
memehk.com 21 526
feifeibt.com 21 527
notretemps.com 21 530
galsen221.com 21 533
momtaznews.com 21 534
codewars.com 21 537
radionomy.com 21 540
baoshuiguoji.com 21 543
panampost.com 21 549
cloudup.com 21 550